Home   Weather   Wiehl   Past weeks

Flag for Germany Past Weather in Wiehl, North Rhine-Westphalia, Germany — Yesterday and Last 2 Weeks

Now
43 °F

Overcast.


Feels Like: 40 °F
Forecast: 32 / 45 °F
Wind: 5 mph from Southeast

Location: Koeln / Bonn

Current Time: Dec 9, 2016 at 5:09:10 am

Latest Report: Dec 9, 2016 at 4:20 am


Visibility: N/A

Pressure: 30.39 "Hg

Humidity: 76%

Dew Point: 36 °F

Location of WiehlLocation

Past Weather in Wiehl — Graph

°F

Wiehl Temperature Yesterday

Maximum temperature yesterday: 45 °F (at 1:50 pm)
Minimum temperature yesterday: 36 °F (at 4:20 am)
Average temperature yesterday: 40 °F

High & Low Weather Summary for the Past Weeks

 TemperatureHumidityPressure
High61 °F (Nov 24, 1:20 pm)100% (Nov 24, 3:50 am)30.57 "Hg (Nov 24, 3:50 am)
Low18 °F (Nov 30, 6:50 am)44% (Nov 25, 3:20 pm)30.07 "Hg (Nov 24, 3:20 am)
Average36 °F82%30.31 "Hg
* Reported Nov 24 3:20 am — Dec 9 3:50 am, Wiehl, Weather by CustomWeather, © 2016

Note: Actual official high and low records may vary slightly from our data, if they occured in-between our weather recording intervals... More about our weather records

Advertising

Wiehl Weather History for the Previous 24 Hours

Scroll right to see more
 ConditionsComfort  
Time TempWeatherWind HumidityBarometerVisibility
3:50 am
Fri, Dec 9
43 °FOvercast.5 mph76%30.39 "HgN/A
3:20 am43 °FOvercast.7 mph76%30.39 "HgN/A
2:50 am43 °FOvercast.8 mph81%30.39 "HgN/A
2:20 am41 °FOvercast.7 mph81%30.39 "HgN/A
1:50 am41 °FOvercast.6 mph81%30.39 "HgN/A
1:20 am41 °FLight rain. Overcast.5 mph81%30.39 "HgN/A
12:50 am41 °FDrizzle. Mostly cloudy.3 mph76%30.39 "HgN/A
12:20 am41 °FPassing clouds.6 mph76%30.39 "HgN/A
11:50 pm
Thu, Dec 8
41 °FPartly cloudy.3 mph76%30.39 "HgN/A
11:20 pm43 °FPassing clouds.3 mph71%30.39 "HgN/A
10:50 pm41 °FPartly cloudy.5 mph76%30.39 "HgN/A
10:20 pm41 °FPassing clouds.7 mph76%30.39 "HgN/A
9:50 pm41 °FPassing clouds.9 mph76%30.39 "HgN/A
9:20 pm39 °FPassing clouds.6 mph75%30.39 "HgN/A
8:50 pm39 °FClear.8 mph75%30.39 "Hg10 mi
8:20 pm39 °FClear.12 mph75%30.39 "Hg10 mi
7:50 pm39 °FClear.9 mph75%30.39 "Hg10 mi
7:20 pm39 °FPassing clouds.3 mph75%30.39 "HgN/A
6:50 pm39 °FClear.9 mph75%30.39 "Hg10 mi
6:20 pm39 °FClear.8 mph75%30.39 "Hg10 mi
5:50 pm39 °FClear.8 mph75%30.39 "Hg10 mi
5:20 pm41 °FPassing clouds.8 mph70%30.36 "HgN/A
4:50 pm41 °FClear.5 mph70%30.39 "Hg10 mi
4:20 pm43 °FPassing clouds.3 mph71%30.36 "HgN/A
3:50 pm43 °FSunny.8 mph71%30.36 "Hg10 mi
3:20 pm45 °FSunny.8 mph66%30.36 "Hg10 mi
2:50 pm45 °FSunny.7 mph61%30.39 "Hg10 mi
2:20 pm45 °FSunny.8 mph66%30.39 "Hg10 mi
1:50 pm45 °FPassing clouds.9 mph61%30.39 "HgN/A
1:20 pm43 °FSunny.12 mph66%30.39 "Hg10 mi
12:50 pm43 °FSunny.9 mph66%30.42 "Hg10 mi
12:20 pm43 °FPassing clouds.7 mph66%30.42 "HgN/A
11:50 am43 °FPassing clouds.7 mph66%30.42 "HgN/A
11:20 am43 °FPassing clouds.8 mph61%30.42 "HgN/A
10:50 am43 °FPassing clouds.10 mph61%30.45 "HgN/A
10:20 am41 °FSunny.7 mph66%30.45 "Hg10 mi
9:50 am39 °FPassing clouds.8 mph70%30.45 "HgN/A
9:20 am37 °FPassing clouds.8 mph75%30.45 "HgN/A
8:50 am37 °FSunny.10 mph75%30.45 "Hg10 mi
8:20 am37 °FPassing clouds.6 mph75%30.45 "HgN/A
7:50 am37 °FClear.9 mph75%30.45 "Hg10 mi
7:20 am37 °FPassing clouds.6 mph75%30.45 "HgN/A
6:50 am37 °FClear.9 mph75%30.42 "Hg10 mi
6:20 am37 °FPassing clouds.6 mph81%30.42 "HgN/A
5:50 am37 °FClear.8 mph81%30.42 "Hg10 mi
5:20 am37 °FPassing clouds.7 mph81%30.42 "HgN/A
Weather by CustomWeather, © 2016

See weather overviewHow to use our weather pages